TimePST,TemperatureF,Dew PointF,Humidity,Sea Level PressureIn,VisibilityMPH,Wind Direction,Wind SpeedMPH,Gust SpeedMPH,PrecipitationIn,Events,Conditions,WindDirDegrees,DateUTC
12:42 AM,23.0,21.9,96,30.27,1.8,Calm,Calm,-,N/A,,Clear,0,2013-02-01 08:42:00
12:53 AM,21.9,21.9,100,30.32,2.0,Calm,Calm,-,N/A,,Clear,0,2013-02-01 08:53:00
1:00 AM,19.9,18.0,92,30.28,10.0,West,3.5,-,N/A,,Partly Cloudy,280,2013-02-01 09:00:00
1:53 AM,23.0,21.9,96,30.32,10.0,West,3.5,-,N/A,,Clear,280,2013-02-01 09:53:00
2:31 AM,19.9,19.0,96,30.28,1.8,SSW,4.6,-,N/A,,Partly Cloudy,200,2013-02-01 10:31:00
2:34 AM,19.9,19.0,96,30.28,0.8,SSW,5.8,-,N/A,,Mist,200,2013-02-01 10:34:00
2:46 AM,21.9,21.0,96,30.28,0.2,SSE,4.6,-,N/A,Fog,Light Freezing Fog,160,2013-02-01 10:46:00
2:53 AM,19.9,19.9,100,30.32,0.5,SSE,3.5,-,N/A,Fog,Light Freezing Fog,160,2013-02-01 10:53:00
3:05 AM,19.9,19.0,96,30.28,0.2,Calm,Calm,-,N/A,Fog,Light Freezing Fog,0,2013-02-01 11:05:00
3:40 AM,21.9,19.9,92,30.28,1.0,Calm,Calm,-,N/A,,Mist,0,2013-02-01 11:40:00
3:42 AM,21.9,21.0,96,30.28,2.0,Calm,Calm,-,N/A,,Scattered Clouds,0,2013-02-01 11:42:00
3:49 AM,21.2,21.2,100,30.28,9.0,Calm,Calm,-,N/A,,Partly Cloudy,0,2013-02-01 11:49:00
4:06 AM,21.0,19.9,96,30.28,10.0,Calm,Calm,-,N/A,,Mostly Cloudy,0,2013-02-01 12:06:00
4:14 AM,21.9,21.0,96,30.28,10.0,Calm,Calm,-,N/A,,Scattered Clouds,0,2013-02-01 12:14:00
4:53 AM,19.0,18.0,96,30.33,10.0,Calm,Calm,-,N/A,,Clear,0,2013-02-01 12:53:00
5:11 AM,17.1,16.0,96,30.28,2.5,Calm,Calm,-,N/A,,Partly Cloudy,0,2013-02-01 13:11:00
5:14 AM,17.1,15.1,92,30.28,1.0,Calm,Calm,-,N/A,,Mist,0,2013-02-01 13:14:00
5:21 AM,18.0,17.1,96,30.28,0.5,ESE,3.5,-,N/A,Fog,Light Freezing Fog,120,2013-02-01 13:21:00
5:31 AM,16.0,15.1,96,30.28,0.2,SE,5.8,-,N/A,Fog,Light Freezing Fog,130,2013-02-01 13:31:00
5:53 AM,12.9,12.9,100,30.37,0.2,Calm,Calm,-,N/A,Fog,Light Freezing Fog,0,2013-02-01 13:53:00
6:12 AM,14.0,14.0,100,30.29,0.5,Calm,Calm,-,N/A,Fog,Light Freezing Fog,0,2013-02-01 14:12:00
6:21 AM,15.1,12.9,91,30.29,0.2,Calm,Calm,-,N/A,Fog,Light Freezing Fog,0,2013-02-01 14:21:00
6:27 AM,16.0,16.0,100,30.29,0.5,Calm,Calm,-,N/A,Fog,Light Freezing Fog,0,2013-02-01 14:27:00
6:39 AM,18.0,17.1,96,30.29,0.2,Calm,Calm,-,N/A,Fog,Light Freezing Fog,0,2013-02-01 14:39:00
6:51 AM,15.8,15.8,100,30.30,0.5,SE,3.5,-,N/A,Fog,Light Freezing Fog,130,2013-02-01 14:51:00
6:53 AM,17.1,15.1,92,30.38,0.2,SE,3.5,-,N/A,Fog,Light Freezing Fog,130,2013-02-01 14:53:00
7:08 AM,15.1,14.0,95,30.30,0.2,SE,4.6,-,N/A,Fog,Light Freezing Fog,130,2013-02-01 15:08:00
7:16 AM,16.0,15.1,96,30.31,0.2,SE,5.8,-,N/A,Fog,Light Freezing Fog,140,2013-02-01 15:16:00
7:34 AM,16.0,15.1,96,30.31,1.0,Calm,Calm,-,N/A,,Mist,0,2013-02-01 15:34:00
7:36 AM,17.1,15.1,92,30.31,2.0,Calm,Calm,-,N/A,,Scattered Clouds,0,2013-02-01 15:36:00
7:45 AM,17.1,15.1,92,30.32,9.0,NNW,3.5,-,N/A,,Partly Cloudy,330,2013-02-01 15:45:00
7:53 AM,19.0,17.1,92,30.43,9.0,WNW,3.5,-,N/A,,Partly Cloudy,300,2013-02-01 15:53:00
8:16 AM,23.0,21.0,92,30.32,10.0,WNW,3.5,-,N/A,,Mostly Cloudy,300,2013-02-01 16:16:00
8:26 AM,24.1,21.9,91,30.32,10.0,WNW,3.5,-,N/A,,Scattered Clouds,290,2013-02-01 16:26:00
8:53 AM,28.9,27.0,92,30.42,10.0,Calm,Calm,-,N/A,,Clear,0,2013-02-01 16:53:00
9:53 AM,35.1,32.0,89,30.41,10.0,Calm,Calm,-,N/A,,Clear,0,2013-02-01 17:53:00
10:53 AM,44.1,33.1,65,30.39,10.0,Calm,Calm,-,N/A,,Clear,0,2013-02-01 18:53:00
11:53 AM,48.0,34.0,58,30.37,10.0,Variable,4.6,-,N/A,,Clear,0,2013-02-01 19:53:00
12:53 PM,51.1,34.0,52,30.34,10.0,Variable,4.6,-,N/A,,Clear,0,2013-02-01 20:53:00
1:53 PM,53.1,33.1,47,30.32,10.0,ENE,4.6,-,N/A,,Clear,60,2013-02-01 21:53:00
2:53 PM,55.0,30.0,38,30.31,10.0,North,3.5,-,N/A,,Clear,360,2013-02-01 22:53:00
3:53 PM,54.0,28.0,37,30.31,10.0,ENE,3.5,-,N/A,,Clear,70,2013-02-01 23:53:00
4:53 PM,52.0,28.0,40,30.31,10.0,East,4.6,-,N/A,,Clear,80,2013-02-02 00:53:00
5:53 PM,42.1,28.9,60,30.37,10.0,East,3.5,-,N/A,,Clear,80,2013-02-02 01:53:00
6:53 PM,39.0,27.0,62,30.40,10.0,Calm,Calm,-,N/A,,Clear,0,2013-02-02 02:53:00
7:53 PM,42.1,34.0,73,30.38,10.0,NNE,12.7,-,N/A,,Clear,30,2013-02-02 03:53:00
8:53 PM,39.9,33.1,77,30.37,10.0,NNE,12.7,-,N/A,,Clear,30,2013-02-02 04:53:00
9:53 PM,37.9,32.0,79,30.39,10.0,North,9.2,-,N/A,,Clear,10,2013-02-02 05:53:00
10:53 PM,28.0,25.0,88,30.42,10.0,NNW,4.6,-,N/A,,Clear,340,2013-02-02 06:53:00
11:53 PM,34.0,30.0,85,30.38,10.0,North,8.1,-,N/A,,Clear,10,2013-02-02 07:53:00